LPE104 SKIB-SKPS

Flight info

Callsign LPE104
Flight time N/A
Altitude 36000
Route USANA2B USANA DCT MER
Aircraft A20N/M-SDE2E3FGHIRWXY/LB1

Departure

Time N/A
Airport Perales Airport (SKIB)

Arrival

Time 2026-05-08 22:57
Airport Antonio Nariño Airport (SKPS)
Time Latitude Longitude Altitude Speed Heading
2026-05-08 22:35 2.69248 -76.20774 36068 ft 451 kts 226°
2026-05-08 22:35 2.67085 -76.23035 36069 ft 449 kts 226°
2026-05-08 22:36 2.62748 -76.27568 36073 ft 449 kts 226°
2026-05-08 22:36 2.58454 -76.32055 36070 ft 450 kts 226°
2026-05-08 22:37 2.54128 -76.36575 36068 ft 448 kts 226°
2026-05-08 22:37 2.49778 -76.41121 35664 ft 451 kts 226°
2026-05-08 22:37 2.47627 -76.43369 35035 ft 454 kts 226°
2026-05-08 22:38 2.45444 -76.45651 34156 ft 460 kts 225°
2026-05-08 22:38 2.43203 -76.47994 33046 ft 468 kts 225°
2026-05-08 22:38 2.40948 -76.50349 32250 ft 467 kts 225°
2026-05-08 22:38 2.38694 -76.52705 31373 ft 469 kts 225°
2026-05-08 22:39 2.36461 -76.55037 30818 ft 464 kts 225°
2026-05-08 22:39 2.34228 -76.57370 30204 ft 460 kts 225°
2026-05-08 22:39 2.32061 -76.59634 29455 ft 457 kts 225°
2026-05-08 22:39 2.29891 -76.61902 28949 ft 450 kts 225°
2026-05-08 22:40 2.27702 -76.64190 28347 ft 444 kts 225°
2026-05-08 22:40 2.25573 -76.66414 27753 ft 440 kts 225°
2026-05-08 22:40 2.23470 -76.68610 27165 ft 436 kts 225°
2026-05-08 22:41 2.19188 -76.73081 25939 ft 430 kts 225°
2026-05-08 22:41 2.17128 -76.75232 25329 ft 428 kts 225°
2026-05-08 22:41 2.16931 -76.75437 25284 ft 428 kts 225°
2026-05-08 22:43 2.16840 -76.75532 25259 ft 427 kts 225°
2026-05-08 22:43 2.14758 -76.77705 24638 ft 426 kts 225°
2026-05-08 22:43 2.12689 -76.79864 24053 ft 425 kts 225°
2026-05-08 22:44 2.10658 -76.81983 23427 ft 423 kts 225°
2026-05-08 22:44 2.08625 -76.84105 22865 ft 419 kts 225°
2026-05-08 22:44 2.06625 -76.86194 22291 ft 415 kts 225°
2026-05-08 22:44 2.04635 -76.88272 21665 ft 413 kts 225°
2026-05-08 22:45 2.02656 -76.90337 21144 ft 409 kts 225°
2026-05-08 22:45 2.00690 -76.92389 20543 ft 407 kts 225°
2026-05-08 22:45 1.98736 -76.94427 19931 ft 405 kts 225°
2026-05-08 22:45 1.96794 -76.96454 19366 ft 403 kts 225°
2026-05-08 22:46 1.94863 -76.98469 18801 ft 400 kts 225°
2026-05-08 22:46 1.92947 -77.00467 18204 ft 399 kts 225°
2026-05-08 22:46 1.91033 -77.02465 17635 ft 395 kts 225°
2026-05-08 22:46 1.89136 -77.04444 17055 ft 392 kts 225°
2026-05-08 22:47 1.87257 -77.06405 16506 ft 389 kts 225°
2026-05-08 22:47 1.85396 -77.08347 15910 ft 386 kts 225°
2026-05-08 22:47 1.83544 -77.10280 15380 ft 383 kts 225°
2026-05-08 22:47 1.81701 -77.12203 14780 ft 382 kts 224°
2026-05-08 22:48 1.79844 -77.14069 14250 ft 378 kts 220°
2026-05-08 22:48 1.77775 -77.15657 13699 ft 374 kts 211°
2026-05-08 22:48 1.75516 -77.16929 13154 ft 368 kts 205°
2026-05-08 22:48 1.73252 -77.18101 12634 ft 364 kts 206°
2026-05-08 22:49 1.71020 -77.19273 12124 ft 361 kts 206°
2026-05-08 22:49 1.66617 -77.21596 11238 ft 351 kts 206°
2026-05-08 22:49 1.64488 -77.22720 11125 ft 346 kts 206°
2026-05-08 22:50 1.62339 -77.23852 11109 ft 350 kts 206°
2026-05-08 22:50 1.60186 -77.24985 11115 ft 349 kts 206°
2026-05-08 22:50 1.58038 -77.26116 11109 ft 350 kts 206°
2026-05-08 22:50 1.55868 -77.27260 11061 ft 344 kts 206°
2026-05-08 22:51 1.53803 -77.28351 10929 ft 326 kts 206°
2026-05-08 22:51 1.51847 -77.29384 10770 ft 309 kts 206°
2026-05-08 22:51 1.50006 -77.30352 10638 ft 291 kts 205°
2026-05-08 22:51 1.48267 -77.31269 10483 ft 273 kts 206°
2026-05-08 22:52 1.46640 -77.32126 10346 ft 254 kts 205°
2026-05-08 22:52 1.45146 -77.32915 10197 ft 230 kts 205°
2026-05-08 22:52 1.43800 -77.33626 10016 ft 208 kts 205°
2026-05-08 22:52 1.42587 -77.34249 9685 ft 190 kts 204°
2026-05-08 22:53 1.41472 -77.34798 9519 ft 172 kts 204°
2026-05-08 22:53 1.40390 -77.35325 9103 ft 171 kts 204°
2026-05-08 22:53 1.39346 -77.35838 8851 ft 166 kts 204°
2026-05-08 22:53 1.38646 -77.36186 8940 ft 171 kts 204°
2026-05-08 22:54 1.37505 -77.36540 8911 ft 172 kts 183°
2026-05-08 22:54 1.36323 -77.36452 8768 ft 163 kts 163°
2026-05-08 22:54 1.35291 -77.35986 8340 ft 164 kts 143°
2026-05-08 22:54 1.34495 -77.35203 8021 ft 156 kts 124°
2026-05-08 22:55 1.33999 -77.34236 7649 ft 157 kts 106°
2026-05-08 22:55 1.33843 -77.33195 7431 ft 145 kts 86°
2026-05-08 22:55 1.34014 -77.32169 7504 ft 158 kts 70°
2026-05-08 22:55 1.34499 -77.31214 7495 ft 151 kts 50°
2026-05-08 22:56 1.35230 -77.30492 7489 ft 146 kts 34°
2026-05-08 22:56 1.36098 -77.29954 7125 ft 150 kts 22°
2026-05-08 22:56 1.37142 -77.29685 6546 ft 160 kts
2026-05-08 22:56 1.38199 -77.29477 6171 ft 155 kts 14°
2026-05-08 22:57 1.39220 -77.29206 5931 ft 141 kts 14°
2026-05-08 22:57 1.40009 -77.29004 5893 ft 75 kts 15°
2026-05-08 22:57 1.40254 -77.28938 5869 ft 23 kts 14°
2026-05-08 22:57 1.40427 -77.28895 5863 ft 27 kts 14°
2026-05-08 22:58 1.40584 -77.28860 5852 ft 4 kts
2026-05-08 22:58 1.40608 -77.28857 5851 ft 8 kts 34°
2026-05-08 22:58 1.40595 -77.28831 5852 ft 9 kts 177°
2026-05-08 22:58 1.40417 -77.28891 5867 ft 47 kts 197°
2026-05-08 22:59 1.39997 -77.29004 5889 ft 69 kts 195°
2026-05-08 22:59 1.39707 -77.29079 5905 ft 17 kts 180°
2026-05-08 22:59 1.39651 -77.29015 5906 ft 9 kts 147°
2026-05-08 22:59 1.39611 -77.28977 5907 ft 0 kts 102°